Flag for Australia Weather past 2 weeks in Perth, Western Australia, Australia

Now
91 °F

Sunny.


Feels Like: 92 °F
Forecast: 70 / 91 °F
Wind: 16 mph from West

Location: Belmont Perth Airport

Current Time: Jan 28, 2015 at 5:27:04 PM

Latest Report: Jan 28, 2015 at 5:00 PM


Visibility: 10 mi

Pressure: 29.65 "Hg

Humidity: 38%

Dew point: 63 °F

Location of PerthLocation

Historic Weather in Perth — Graph

°F

Perth temperature yesterday

Maximum temperature yesterday: 102 °F (at 1:30 PM)
Minimum temperature yesterday: 72 °F (at 5:00 AM)
Average temperature yesterday: 86 °F

Past Weeks' High & Low Weather Summary

 TemperatureHumidityPressure
High102 °F (Jan 20, 3:30 PM)100% (Jan 14, 4:00 AM)30.04 "Hg (Jan 14, 4:00 AM)
Low57 °F (Jan 20, 5:30 AM)11% (Jan 21, 10:00 AM)29.65 "Hg (Jan 27, 3:30 PM)
Average78 °F47%29.88 "Hg
* Reported Jan 13 4:00 PM — Jan 28 4:00 PM, Perth, Weather by CustomWeather, © 2014

Note: Actual official high and low records may vary slightly from our data, if they occured in-between our weather recording intervals... More about our weather records

Advertising

Perth weather history for previous 24 hours

 ConditionsComfort  
Time TempWeatherWind HumidityBarometerVisibility
4:00 PM
Jan 28
95 °FPassing clouds.14 mph28%29.65 "HgN/A
3:30 PM95 °FPassing clouds.16 mph30%29.68 "HgN/A
3:00 PM97 °FSunny.16 mph25%29.68 "Hg10 mi
2:30 PM97 °FSunny.17 mph27%29.68 "Hg10 mi
2:00 PM99 °FSunny.15 mph24%29.68 "Hg10 mi
1:30 PM99 °FSunny.15 mph24%29.68 "Hg10 mi
1:00 PM100 °FSunny.13 mph22%29.68 "Hg10 mi
12:30 PM99 °FSunny.12 mph24%29.71 "Hg10 mi
12:00 PM97 °FSunny.14 mph25%29.71 "Hg10 mi
11:30 AM99 °FSunny.7 mph22%29.71 "Hg10 mi
11:00 AM99 °FSunny.7 mph21%29.74 "Hg10 mi
10:30 AM97 °FSunny.6 mph22%29.74 "Hg10 mi
10:00 AM93 °FSunny.3 mph24%29.74 "Hg10 mi
9:30 AM91 °FSunny.6 mph26%29.74 "Hg10 mi
9:00 AM90 °FSunny.6 mph27%29.77 "Hg10 mi
8:30 AM90 °FSunny.7 mph27%29.77 "Hg10 mi
8:00 AM88 °FSunny.7 mph29%29.74 "Hg10 mi
7:30 AM84 °FSunny.12 mph29%29.74 "Hg10 mi
7:00 AM82 °FSunny.14 mph30%29.71 "Hg10 mi
6:30 AM81 °FSunny.14 mph32%29.71 "Hg10 mi
6:00 AM79 °FSunny.15 mph32%29.71 "Hg10 mi
5:00 AM81 °FSunny.17 mph28%29.68 "Hg10 mi
4:30 AM81 °FClear.16 mph30%29.68 "Hg10 mi
4:00 AM82 °FClear.18 mph26%29.65 "Hg10 mi
3:30 AM81 °FClear.21 mph28%29.65 "Hg10 mi
3:00 AM82 °FClear.18 mph25%29.65 "Hg10 mi
2:30 AM84 °FClear.17 mph22%29.65 "Hg10 mi
2:00 AM84 °FClear.20 mph22%29.65 "Hg10 mi
1:30 AM86 °FClear.21 mph19%29.65 "Hg10 mi
1:00 AM86 °FClear.18 mph19%29.65 "Hg10 mi
12:30 AM86 °FClear.17 mph19%29.65 "Hg10 mi
12:00 AM73 °FClear.5 mph50%29.68 "Hg10 mi
11:30 PM
Jan 27
73 °FClear.No wind50%29.68 "Hg10 mi
11:00 PM75 °FClear.3 mph47%29.68 "Hg10 mi
10:30 PM79 °FClear.5 mph39%29.68 "Hg10 mi
10:00 PM82 °FClear.8 mph37%29.68 "Hg10 mi
9:30 PM86 °FClear.10 mph29%29.68 "Hg10 mi
9:00 PM88 °FClear.15 mph25%29.68 "Hg10 mi
8:30 PM88 °FClear.16 mph25%29.68 "Hg10 mi
8:00 PM90 °FClear.17 mph24%29.68 "Hg10 mi
7:00 PM91 °FClear.18 mph23%29.68 "Hg10 mi
6:49 PM93 °FSnow. Passing clouds.17 mph20%29.68 "HgN/A
6:00 PM97 °FSnow. Scattered clouds.20 mph18%29.65 "HgN/A
5:30 PM99 °FSunny.18 mph17%29.65 "Hg10 mi
5:00 PM97 °FSunny.20 mph18%29.65 "Hg10 mi
Weather by CustomWeather, © 2014

See weather overviewHow to use our weather pages